www.pogodaiklimat.ru
ПОГОДА в Данбери
Время
и дата
09:08 24.10
09:53 24.10
10:53 24.10
11:53 24.10
12:53 24.10
13:43 24.10
13:45 24.10
13:53 24.10
14:00 24.10
14:30 24.10
14:53 24.10
15:53 24.10
16:53 24.10
17:53 24.10
18:53 24.10
19:53 24.10
20:53 24.10
21:53 24.10
22:53 24.10
23:53 24.10
00:53 25.10
01:53 25.10
02:53 25.10
03:53 25.10
04:53 25.10
05:53 25.10
06:53 25.10
07:53 25.10
08:53 25.10
09:26 25.10
09:53 25.10
10:53 25.10
11:53 25.10
12:53 25.10
13:53 25.10
14:53 25.10
15:53 25.10
16:53 25.10
17:53 25.10
18:49 25.10
18:53 25.10
19:53 25.10
20:53 25.10
21:53 25.10
22:53 25.10
23:53 25.10
00:49 26.10
00:53 26.10
Ветер
(напр.,м/с)
Видим. Явления Облачность Т
(С)
Тd
(С)
f
(%)
Тe
(С)
Тes
(С)
Комфортность P
(гПа)
Po
(гПа)
Тmin
(С)
Tmax
(С)
R
(мм)
R24
(мм)
S
(см)
ЮЗ 1 6 км дымка 10/10 240 м +16.7 +15.6 93 +16 +16
ЮЗ 1 16 км 10/10 240 м +17.2 +15.6 90 +17 +17 1012.7 996.5
З 1 16 км 10/10 240 м +17.2 +15.6 90 +17 +17 1012.4 996.2
З 1 16 км 10/10 270 м +17.8 +16.1 90 +18 +18 1012.0 995.8
З 1 16 км 10/10 270 м +18.3 +16.1 87 +19 +19 1011.3 995.2 +16.1 +18.3
ЮВ 2 16 км 10/10 270 м +14.4 +11.7 84 +13 +13 995.2
ЮВ 2 16 км 10/10 270 м +14.4 +11.7 84 +13 +13 995.2
СВ 2 16 км 8/8 270 м +14.4 +11.7 84 +13 +14 1011.4 995.2
С 2 16 км 8/8 420 м +14.4 +11.7 84 +13 +14 995.8
штиль 0 16 км 10/10 450 м +15.6 +11.7 78 +15 +15 995.8
С 2 16 км 5/5 810 м +15.6 +10.0 69 +14 +16 996.2
СЗ 2 16 км 10/10 960 м +15.0 +8.3 64 +14 +14 996.8 0.3
штиль 0 16 км 5/5 1050 м +13.9 +7.2 64 +14 +14 997.2
нст 1 16 км ясно +12.8 +5.0 59 +12 +12 997.8
С 2 16 км ясно +11.1 +3.9 61 +9 +9 999.2 +11.1 +18.3 0.3
С 2 16 км ясно +9.4 +2.8 63 +7 +7 1000.2
нст 1 16 км ясно +8.3 +2.2 65 +6 +6 1000.8
С 2
{3}
16 км ясно +7.8 +2.2 68 +5 +5
С 2
{4}
16 км ясно +7.2 +0.6 63 +4 +4
С 2 16 км ясно +6.1 0.0 65 +2 +2
С 2 16 км ясно +6.1 0.0 65 +3 +3 +5.6 +11.1
С 2 16 км ясно +5.6 -0.6 64 +2 +2
С 1 16 км ясно +5.0 -0.6 67 +2 +2
С 1 16 км ясно +5.0 0.0 70 +2 +2
С 1 16 км ясно +5.0 -0.6 67 +2 +2
СВ 1 16 км ясно +4.4 -0.6 70 +1 +1 1022.0 1005.2
С 1 16 км ясно +4.4 +0.6 76 +2 +2 1022.3 1005.5 +4.4 +6.1 0.3
С 2 16 км ясно +6.1 +0.6 68 +3 +3 1024.0 1007.2
С 2 16 км ясно +7.8 +0.6 60 +4 +5 1024.7 1007.8
В 2 16 км ясно +8.3 +1.1 60 +5 +7 1007.5
СВ 2 16 км ясно +7.8 0.0 58 +4 +6 1024.4 1007.5
СВ 2 16 км ясно +9.4 +0.6 54 +7 +11 1024.4 1007.5
С 2 16 км ясно +10.0 +0.6 52 +8 +12 1024.0 1007.2
С 1 16 км ясно +10.6 +0.6 50 +9 +15 1024.0 1007.2 +4.4 +11.1
СВ 1 16 км 5/0 3600 м
[Ac]
+11.1 0.0 46 +10 +13 1024.0 1007.2
В 2 16 км 2/0 3600 м
[Ac]
+10.0 0.0 50 +8 +11 1024.4 1007.5
В 1 16 км 10/0 3300 м
[Ac]
+10.0 +0.6 52 +8 +9 1024.4 1007.5
В 1 16 км слабый дождь 10/2 990 м
[Ac]
+9.4 +1.1 56 +8 +8 1024.7 1007.8
В 1 16 км 10/8 930 м
[Ac]
+9.4 +1.7 59 +8 +8 1025.1 1008.2
В 2 16 км 10/8 870 м
[Ac]
+9.0 +1.0 57 +6 +6 1008.2
В 2 16 км 10/8 870 м
[Ac]
+8.9 +1.1 58 +6 +6 1025.1 1008.2 +8.9 +11.1
СВ 2 16 км 10/10 870 м +8.9 +1.7 61 +6 +6 1025.1 1008.2
В 2 16 км 10/10 810 м +8.3 +2.2 65 +5 +5 1025.4 1008.5
В 2 16 км 10/10 630 м +8.3 +2.8 68 +5 +5
В 1 16 км слабый дождь 10/10 600 м +7.8 +3.9 76 +5 +5
В 2 13 км 10/10 540 м +7.2 +5.6 90 +4 +4
В 3 16 км 10/10 390 м +7.0 +6.0 93 +2 +2
В 2 16 км 10/10 390 м +7.2 +5.6 90 +3 +3 +7.2 +8.9
Местоположение метеостанции Danbury Municipal Airport: широта 41.3717 долгота -73.4844 высота над уровнем моря 139 м.
В архиве по умолчанию представлена погода в Данбери за последние 1-2 суток. Обновление информации о фактической погоде в базе происходит ежечасно! Архивные данные за месяц целиком и за предыдущие месяцы Вы можете получить, выбрав интересующий диапазон дат из раскрывающегося списка и нажав кнопку "Ввод!".
Внимание! Архив погоды МЕТАР в базе сайта по станциям, не включенным в климатический монитор, хранится не более 60 дней. Нет смысла пытаться выбрать более раннюю дату.
*Определитесь, кто Вы:
Внимание! Время в таблицах - местное (без учета летнего времени). Для получения всемирного времени необходимо вычесть поправку, которая равна -5 ч.
Смотрите также архив погоды в соседних городах и на ближайших метеорологических станциях:
Партнеры нашего сайта:      
Пояснения к столбцам:
  • Ветер - указаны скорость ветра в м/с - средняя за 10 мин, порывы в срок и между сроками (в фигурных скобках) и направление, откуда дует ветер: С - северный,
  • СВ - северо-восточный, В - восточный, ЮВ - юго-восточный, Ю - южный, ЮЗ - юго-западный, З - западный, СЗ - северо-западный.
  • Видимость - горизонтальная дальность видимости в метрах или километрах. При видимости от 1 до 10 км при отсутствии осадков обычно наблюдается дымка, при ухудшении видимости до 1 км и менее - туман. В сухую погоду видимость может ухудшаться дымом, пылью или мглою.
  • Явления - указаны атмосферные явления, наблюдавшиеся в срок или в последний час перед сроком; фигурными скобками обозначены явления, наблюдавшиеся между сроками (за 1-3 часа до срока); квадратными скобками обозначены град или гололедные отложения с указанием их диаметра в мм.
  • Облачность - указаны через наклонную черту общая и нижняя облачность в баллах и высота нижней границы облаков в метрах; квадратными скобками обозначены формы облаков: Ci - перистые, Cs - перисто-слоистые, Cc - перисто-кучевые, Ac - высококучевые, As - высокослоистые, Sc - слоисто-кучевые, Ns - слоисто-дождевые, Cu - кучевые, Cb - кучево-дождевые. Подробнее классификацию облаков см. в Атласе облаков (PDF).
  • T - Температура воздуха - температура, измеренная на высоте 2 м над землей.
  • Td - Температура точки росы - температура, при понижении до которой содержащийся в воздухе водяной пар достигнет насыщения.
  • f - Относительная влажность воздуха - влажноcть воздуха, измеренная на высоте 2 м над землей.
  • Te - Эффективная температура - температура, которую ощущает одетый по сезону человек в тени. Характеристика душности погоды. При расчете учитывается влияние влажности воздуха и скорости ветра на теплоощущения человека.
  • Tes - Эффективная температура на солнце - температура, которую ощущает человек, с поправкой на солнечный нагрев. Характеристика знойности погоды. Зависит от высоты солнца над горизонтом, облачности и скорости ветра. Ночью, в пасмурную погоду, а также при ветре 12 м/с и более поправка равна нулю.
  • P - Атмосферное давление - приведенное к уровню моря атмосферное давление.
  • Po - Атмосферное давление - измеренное на уровне метеостанции атмосферное давление.
  • Tmin - Минимальная температура - минимум температуры воздуха на высоте 2 м над землей.
  • Tmax - Максимальная температура - максимум температуры воздуха на высоте 2 м над землей.
  • R - Количество осадков - Количество выпавших осадков за период времени, мм. При наведении курсора мыши на число - период времени, за который выпало указанное количество осадков.
  • R24 - Количество осадков - Количество выпавших осадков за 24 часа, мм.
  • S - Снежный покров - Высота снежного покрова, см. При наведении курсора мыши на число - состояние снежного покрова и степень покрытия местности в баллах.